Probability
0 0 0 0 0 0 0 0 0 0 0 0 0 0 0 0 0 0 0 0 0 0 0 0 0 0 0 0 0 0 0 0 0 0 0 0 0 0
0 0 0 0 0 0 0 0 0 0 0 0 0 0 0 0 0 0 0 0 0 0 0 0 0 0 0 0 0 0 0 0 0 0 0 0 0 0
0 0 0 0 0 0 0 0 0 0 0 0 0 0 0 0 0 0 0 0 0 0 0 0 0 0 0 0 0 0 0 0 0 0 0 0 0 0
0 0 0 0 0 0 0 0 0 0 0 0 0 0 0 0 0 0 0 0 0 0 0 0 0 0 0 0 0 0 0 0 0 0 0 0 0 0
0 0 0 0 0 0 0 0 0 0 0 0 0 0 0 0 0 0 0 0 0 0 0 0 0 0 0 0 0 0 0 0 0 0 0 0 0 0
0 0 0 0 0 0 0 0 0 0 0 0 0 0 0 0 0 0 0 0 0 0 0 0 0 0 0 0 0 0 0 0 0 0 0 0 0 0
0 0 0 0 0 0 0 0 0 0 0 0 0 0 0 0 0 0 0 0 0 0 0 0 0 0 0 0 0 0 0 0 0 0 0 0 0 0
0 0 0 0 0 0 0 0 0 0 0 0 0 0 0 0 0 0 0 0 0 0 0 0 0 0 0 0 0 0 0 0 0 0 0 0 0 0
0 0 0 0 0 0 0 0 0 0 0 0 0 0 0 0 0 0 0 0 0 0 0 0 0 0 0 0 0 0 0 0 0 0 0 0 0 0
0 0 0 0 0 0 0 0 0 0 0 0 0 0 0 0 0 0 0 0 0 0 0 0 0 0 0 0 0 0 0 0 0 0 0 0 0 0
0 0 0 0 0 0 0 0 0 0 0 0 0 0 0 0 0 0 0 0 0 0 0 0 0 0 0 0 0 0 0 0 0 0 0 0 0 0
0 0 0 0 0 0 0 0 0 0 0 0 0 0 0 0 0 0 0 0 0 0 0 0 0 0 0 0 0 0 0 0 0 0 0 0 0 0
0 0 0 0 0 0 0 0 0 0 0 0 0 0 0 0 0 0 0 0 0 0 0 0 0 0 0 0 0 0 0 0 0 0 0 0 0 0
0 0 0 0 0 0 0 0 0 0 0 0 0 0 0 0 0 0 0 0 0 0 0 0 0 0 0 0 0 0 0 0 0 0 0 0 0 0
0 0 0 0 0 0 0 0 0 0 0 0 0 0 0 0 0 0 0 0 0 0 0 0 0 0 0 0 0 0 0 0 0 0 0 0 0 0
0 0 0 0 0 0 0 0 0 0 0 0 0 0 0 0 0 0 0 0 0 0 0 0 0 0 0 0 0 0 0 0 0 0 0 0 0 0
0 0 0 0 0 0 0 0 0 0 0 0 0 0 0 0 0 0 0 0 0 0 0 0 0 0 0 0 0 0 0 0 0 0 0 0 0 0
0 0 0 0 0 0 0 0 0 0 0 0 0 0 0 0 0 0 0 0 0 0 0 0 0 0 0 0 0 0 0 0 0 0 0 0 0 0
0 0 0 0 0 0 0 0 0 0 0 0 0 0 0 0 0 0 0 0 0 0 0 0 0 0 0 0 0 0 0 0 0 0 0 0 0 0
0 0 0 0 0 0 0 0 0 0 0 0 0 0 0 0 0 0 0 0 0 0 0 0 0 0 0 0 0 0 0 0 0 0 0 0 0 0
0 0 0 0 0 0 0 0 0 0 0 0 0 0 0 0 0 0 0 0 0 0 0 0 0 0 0 0 0 0 0 0 0 0 0 0 0 0
0 0 0 0 0 0 0 0 0 0 0 0 0 0 0 0 0 0 0 0 0 0 0 0 0 0 0 0 0 0 0 0 0 0 0 0 0 0
0 0 0 0 0 0 0 0 0 0 0 0 0 0 0 0 0 0 0 0 0 0 0 0 0 0 0 0 0 0 0 0 0 0 0 0 0 0
Wind_Speed
3 3 2 1 1 1 2 3 4 1 2 4 3 2 2 2 4 4 4 7 9 9 10 10 10 10 10 10 10 9 9 9 10 10 11 11 12 13
2 3 2 1 1 1 2 2 3 4 3 3 3 3 2 3 5 4 5 9 10 10 10 11 11 12 12 12 12 11 11 11 11 11 11 11 11 11
3 4 4 3 2 2 1 2 2 3 3 4 3 2 2 3 3 3 5 5 5 10 11 12 12 12 13 13 13 13 12 12 12 12 12 12 12 12
5 4 5 4 4 3 2 2 2 3 4 4 3 3 4 4 4 4 5 5 5 9 12 12 12 13 13 13 13 13 13 13 13 13 13 13 13 13
6 6 6 5 5 4 4 4 3 3 3 4 4 3 3 3 3 4 4 4 5 7 9 10 11 12 12 13 13 14 14 14 14 14 14 14 14 14
6 6 6 6 7 6 5 5 4 4 3 3 4 4 4 4 2 3 4 3 4 5 6 7 8 10 12 13 13 14 14 15 15 15 15 15 15 14
6 6 7 8 9 8 6 6 5 4 4 4 4 4 4 3 4 3 4 4 4 4 4 5 4 4 6 9 11 13 14 15 15 15 16 16 16 15
6 6 6 7 10 12 12 11 9 7 6 5 5 6 7 6 4 4 4 3 5 3 3 5 3 5 6 5 10 14 15 15 15 15 16 16 16 16
7 6 6 6 7 6 9 11 11 13 12 8 8 9 8 7 5 5 5 6 7 5 2 5 4 6 6 8 13 15 15 15 15 15 15 16 16 16
7 7 7 7 6 6 6 6 7 8 10 9 9 10 10 8 7 8 7 6 6 5 4 5 6 6 7 6 12 15 15 15 15 15 15 16 16 16
6 6 6 7 8 8 5 6 7 8 10 12 13 14 15 15 11 4 4 4 6 6 5 5 5 5 5 7 9 14 15 15 15 15 15 15 16 14
5 5 7 7 8 7 5 6 8 9 7 7 8 10 11 13 14 10 8 7 6 6 5 5 5 4 4 5 6 6 7 11 14 15 15 15 14 7
5 4 4 6 7 8 7 7 11 10 6 6 7 7 7 7 8 9 9 9 9 8 6 5 5 4 5 5 4 5 5 6 6 7 11 14 14 10
4 3 3 5 7 8 7 9 13 9 5 5 6 7 7 8 8 8 9 11 11 12 10 7 6 6 6 6 6 4 5 5 5 6 6 9 11 14
3 5 6 7 7 7 9 12 9 5 5 6 7 8 8 8 7 6 7 8 9 11 11 10 9 8 7 8 8 6 5 5 5 6 6 6 6 5
3 4 6 7 7 8 8 7 5 5 6 7 7 7 6 6 6 6 7 6 6 8 8 9 10 10 9 10 9 8 7 5 4 5 6 6 5 6
2 1 2 3 4 4 4 5 4 4 5 5 6 6 6 6 7 6 6 5 6 7 8 6 7 8 10 9 8 9 8 7 7 7 5 7 7 7
2 2 3 4 5 5 5 5 4 5 5 5 5 6 6 6 7 6 5 6 8 8 8 6 5 4 4 6 11 10 8 8 7 7 6 6 9 7
2 3 4 4 5 5 5 5 5 5 4 4 5 6 6 6 6 6 6 6 7 8 7 6 5 5 7 9 7 11 9 8 6 6 6 7 8 8
2 3 4 4 5 5 5 5 5 5 4 5 5 5 5 6 6 7 7 7 7 7 7 6 6 7 9 10 7 6 11 10 7 7 7 6 7 8
3 4 4 5 5 5 4 5 5 5 5 5 5 6 6 6 7 7 7 9 8 7 8 8 8 10 7 4 5 6 6 11 12 8 6 5 5 4
4 4 4 5 4 4 4 5 5 5 5 5 6 6 6 6 7 8 7 7 7 7 9 8 7 5 4 7 9 9 8 6 9 14 14 11 6 6
4 4 4 5 5 4 4 5 6 6 6 6 6 6 6 7 7 7 7 8 7 8 8 7 5 4 6 7 8 8 9 8 5 4 7 12 17 17
Wind_Direction
158 158 157 169 148 159 155 152 151 178 283 289 301 300 282 247 238 219 229 240 242 244 245 247 250 253 254 257 259 260 261 260 260 259 259 261 261 259
174 166 180 193 173 155 151 153 154 163 221 264 263 277 283 270 241 230 239 248 249 251 251 251 253 255 254 253 253 255 255 256 257 257 256 255 255 256
197 190 208 202 200 200 167 157 164 160 207 267 267 279 285 281 280 260 256 251 255 256 256 255 256 257 257 255 253 252 252 253 255 255 254 253 252 252
210 204 218 214 214 217 204 206 205 192 194 246 274 278 268 265 265 267 262 253 249 259 259 258 258 259 259 257 255 253 252 251 252 253 253 253 253 254
209 209 217 208 219 222 217 219 223 219 199 217 255 258 267 270 279 281 274 270 264 263 260 260 261 262 261 258 255 253 252 252 250 249 249 250 251 252
212 212 213 208 216 220 222 223 222 227 225 228 250 261 264 270 259 268 285 274 270 272 270 267 264 266 265 264 260 257 254 252 251 249 247 247 247 249
223 221 221 220 219 217 219 217 213 220 226 233 249 261 262 263 252 246 259 272 272 254 264 268 268 268 270 268 265 259 255 254 252 249 247 244 243 244
227 233 237 234 235 232 232 225 210 213 222 229 240 242 251 244 245 244 248 263 278 259 231 263 256 263 263 257 259 258 257 255 253 251 248 245 242 241
221 229 242 240 234 235 243 245 239 233 224 221 234 244 248 241 235 247 241 237 247 246 223 266 258 261 261 263 260 257 257 257 255 252 250 247 243 240
223 223 231 243 241 231 237 247 248 246 237 231 233 245 246 243 230 236 245 253 258 254 210 252 261 256 263 258 259 258 258 257 256 255 253 250 246 242
238 236 234 241 250 243 237 248 259 262 256 244 238 244 247 248 242 239 244 243 263 262 209 219 252 258 260 258 259 257 255 256 256 255 254 251 247 243
250 247 240 242 254 251 237 243 256 262 265 271 259 258 256 257 249 232 230 238 248 260 230 209 242 242 269 258 252 253 255 258 257 256 254 252 247 236
245 247 242 247 258 263 253 244 252 259 267 263 265 265 261 256 253 240 227 227 236 245 233 202 229 226 230 260 263 247 242 249 253 254 252 250 244 220
242 248 246 260 270 273 265 257 264 270 262 261 263 264 262 260 257 248 239 235 235 243 246 219 223 231 239 253 261 258 245 240 237 244 246 250 247 232
244 261 274 279 282 277 269 271 273 262 252 255 261 263 259 260 262 260 257 250 249 249 250 235 230 237 232 244 253 250 256 252 233 238 242 237 234 222
262 279 285 284 278 272 279 279 263 250 249 255 260 264 268 268 266 261 263 263 263 265 254 241 234 232 241 243 245 251 243 241 240 231 235 243 237 223
239 274 284 289 288 284 280 274 271 271 263 259 262 270 272 270 269 263 257 258 253 262 271 264 245 236 235 238 243 246 247 245 244 242 235 249 249 235
193 250 262 264 266 273 279 284 279 272 267 265 265 265 268 270 272 268 259 255 258 261 261 263 263 269 269 253 228 239 244 244 245 235 222 239 257 247
206 250 258 261 263 265 265 267 272 273 270 271 272 273 272 271 269 269 266 262 262 262 260 255 241 237 258 269 254 219 228 241 239 236 227 227 245 251
233 248 255 259 261 263 266 269 275 281 280 279 278 276 273 274 275 272 267 263 265 267 268 258 241 233 241 256 263 250 222 226 231 238 240 237 246 255
254 252 254 258 260 261 265 269 270 272 273 275 276 277 276 275 275 272 269 268 264 265 265 263 254 246 247 249 259 261 247 225 222 226 225 228 244 248
257 261 264 263 264 267 271 272 272 271 274 273 274 276 277 275 275 275 272 271 267 262 265 268 266 256 235 238 251 260 265 259 238 236 233 220 211 221
264 265 269 270 268 270 272 273 273 274 273 273 276 278 279 279 277 274 272 271 270 269 267 269 266 253 247 244 250 256 260 261 254 246 249 241 236 241